Find Starlink 34057

NORAD ID: 63814 Int'l Des: 2025-092 Owner: SPXS Country: US Constellation: starlink operational
LEOCIRCULAR

現在のビュー

3D地球を読み込み中...

About Starlink 34057

Starlink 34057 (NORAD 63814) is a starlink constellation satellite (v2 mini) launched May 4, 2025 by SPXS of US. It operates in LEO, CIRCULAR orbit with a mass of 575.00 kg.

次回通過

Passes for default location (London). Set your location on the main map for personalized predictions.

高度履歴

Loading altitude history...

軌道要素

1 63814U 25092L 26226.43859621 .00012993 00000-0 48061-3 0 9992
2 63814 43.0018 1.3664 0001221 219.2489 140.8274 15.27596801 72741
Epoch: Aug 14, 2026 • Age: 30 hours

現在のステータス

高度 486.5 km
遠地点 / 近地点 N/A
速度 7.63 km/s
衛星直下点 42.13°N, 145.42°W
打ち上げ日 May 4, 2025
運用期間 1.2 years
タイプ internet

技術仕様

分類 Payload
質量 575.00 kg
乾燥質量 530.00 kg
総質量 575.00 kg
長さ 0.30 m
直径 4.10 m
スパン 29.00 m
形状 Box + pan
製造者 SPXS
バスタイプ Starlink V2MO
フェーズステータス In Orbit
所有者/国 SPXS/US

Most Searched